This demonstration page uses our WeatherBlox Daily Observations layout. Learn more.

Left ArrowRight Arrow

Hourly Observations for August 10, 2018

Temp ( °F °C ) Dew Point ( °F °C ) Humidity (%) Winds ( mph kmh ) Pressure ( in mb ) Visibility ( mi km ) Precip ( " mm )
12:15 am 00:15 Clear 71 21.5 70 21 97 97 SW 5 7 29.97 1015 10 16 0.00 0.00
12:35 am 00:35 Clear 70 21.1 69 20.8 98 98 SW 5 7 30.00 1016 10 16 0.00 0.00
12:55 am 00:55 Clear 70 21.1 69 20.8 98 98 SW 6 9 30.00 1016 10 16 0.00 0.00
1:15 am 01:15 Clear 70 21 69 20.8 99 99 SW 6 9 30.00 1016 10 16 0.00 0.00
1:35 am 01:35 Clear 70 21 70 20.9 99 99 SW 6 9 29.94 1014 10 16 0.00 0.00
1:55 am 01:55 Clear 70 21.2 70 21 99 99 WSW 6 9 29.97 1015 10 16 0.00 0.00
2:15 am 02:15 Clear 70 21.1 69 20.8 98 98 WSW 5 7 30.00 1016 10 16 0.00 0.00
2:35 am 02:35 Clear 70 21 69 20.7 98 98 W 5 7 30.00 1016 10 16 0.00 0.00
2:55 am 02:55 Clear 69 20.8 69 20.6 99 99 WSW 5 7 30.00 1016 10 16 0.00 0.00
3:15 am 03:15 Clear 69 20.5 69 20.5 100 100 WSW 5 7 29.97 1015 10 16 0.00 0.00
3:35 am 03:35 Clear 69 20.5 69 20.5 100 100 W 6 9 29.97 1015 10 16 0.00 0.00
3:55 am 03:55 Clear 69 20.6 69 20.5 99 99 W 6 9 29.97 1015 10 16 0.00 0.00
4:15 am 04:15 Clear 70 21 69 20.5 97 97 W 8 13 29.94 1014 10 16 0.00 0.00
4:35 am 04:35 Clear 70 20.9 69 20.4 97 97 W 8 13 29.94 1014 10 16 0.00 0.00
4:55 am 04:55 Clear 70 20.9 69 20.4 97 97 W 6 9 29.94 1014 10 16 0.00 0.00
5:15 am 05:15 Clear 69 20.5 68 20.2 98 98 W 5 7 29.97 1015 10 16 0.00 0.00
5:35 am 05:35 Clear 68 20.2 68 20.1 99 99 W 5 7 29.97 1015 10 16 0.00 0.00
5:55 am 05:55 Clear 68 20 68 20 100 100 Calm 29.97 1015 10 16 0.00 0.00
6:15 am 06:15 Clear 68 20 68 20 100 100 Calm 29.97 1015 10 16 0.00 0.00
6:35 am 06:35 Clear 66 19.1 66 19.1 100 100 Calm 29.97 1015 10 16 0.00 0.00
6:55 am 06:55 Sunny 66 19.1 66 19.1 100 100 W 6 9 29.97 1015 7 11 0.00 0.00
7:15 am 07:15 Sunny 67 19.7 67 19.7 100 100 W 5 7 29.97 1015 7 11 0.00 0.00
7:35 am 07:35 Sunny 68 20.1 68 20.1 100 100 W 5 7 29.97 1015 7 11 0.00 0.00
7:55 am 07:55 Sunny 69 20.6 69 20.6 100 100 W 3 6 29.97 1015 10 16 0.00 0.00
8:15 am 08:15 Mostly Cloudy 70 21 70 21 100 100 Calm 29.94 1014 10 16 0.00 0.00
8:35 am 08:35 Cloudy 70 21.3 70 21 98 98 W 6 9 29.94 1014 10 16 0.00 0.00
8:55 am 08:55 Mostly Cloudy 71 21.6 70 21.1 97 97 W 5 7 29.94 1014 10 16 0.00 0.00
9:15 am 09:15 Cloudy 72 22.1 70 21.1 94 94 W 6 9 29.97 1015 10 16 0.00 0.00
9:35 am 09:35 Cloudy 73 22.6 70 21.1 91 91 W 6 9 29.97 1015 10 16 0.00 0.00
9:55 am 09:55 Cloudy 73 22.5 70 21.2 92 92 W 8 13 29.97 1015 10 16 0.00 0.00
10:15 am 10:15 Mostly Cloudy 73 22.9 71 21.5 92 92 W 5 7 29.97 1015 10 16 0.00 0.00
10:35 am 10:35 Partly Cloudy 74 23.6 70 21.3 87 87 WNW 7 11 29.97 1015 10 16 0.00 0.00
10:55 am 10:55 Sunny 76 24.2 70 21.1 83 83 W 8 13 29.97 1015 10 16 0.00 0.00
11:15 am 11:15 Sunny 76 24.6 70 21.3 82 82 WSW 8 13 29.97 1015 10 16 0.00 0.00
11:35 am 11:35 Sunny 77 25 69 20.8 78 78 WSW 7 11 29.97 1015 10 16 0.00 0.00
11:55 am 11:55 Sunny 78 25.7 71 21.4 77 77 WSW 8 13 29.97 1015 10 16 0.00 0.00
12:15 pm 12:15 Sunny 79 26.1 70 21.2 74 74 W 6 9 29.97 1015 10 16 0.00 0.00
12:35 pm 12:35 Sunny 79 26.2 70 21.1 74 74 WSW 5 7 29.97 1015 10 16 0.00 0.00
12:55 pm 12:55 Sunny 80 26.7 70 21.3 72 72 W 6 9 29.97 1015 10 16 0.00 0.00
1:15 pm 13:15 Sunny 79 26.1 68 19.8 68 68 W 7 11 29.97 1015 10 16 0.00 0.00
1:35 pm 13:35 Sunny 80 26.6 70 21 71 71 WSW 6 9 29.94 1014 10 16 0.00 0.00
1:55 pm 13:55 Partly Cloudy 81 27.3 71 21.5 71 71 SW 7 11 29.94 1014 10 16 0.00 0.00
2:15 pm 14:15 Mostly Cloudy 80 26.9 69 20.8 69 69 SSW 6 9 29.94 1014 10 16 0.00 0.00
2:35 pm 14:35 Partly Cloudy 81 27 69 20.4 67 67 W 7 11 29.94 1014 10 16 0.00 0.00
2:55 pm 14:55 Sunny 82 27.7 69 20.8 66 66 WSW 6 9 29.94 1014 10 16 0.00 0.00
3:15 pm 15:15 Partly Cloudy 82 27.5 71 21.4 69 69 SSW 7 11 29.94 1014 10 16 0.00 0.00
3:35 pm 15:35 Mostly Cloudy 82 27.5 69 20.7 66 66 SW 8 13 29.91 1013 10 16 0.00 0.00
3:55 pm 15:55 Partly Cloudy 81 27.3 68 20.1 65 65 WSW 9 15 29.91 1013 10 16 0.00 0.00
4:15 pm 16:15 Sunny 82 27.5 70 20.9 67 67 SW 12 19 29.91 1013 10 16 0.00 0.00
4:35 pm 16:35 Sunny 82 27.7 71 21.5 69 69 SW 8 13 29.91 1013 10 16 0.00 0.00
4:55 pm 16:55 Partly Cloudy 80 26.7 68 20.2 68 68 W 6 9 29.91 1013 10 16 0.00 0.00
5:15 pm 17:15 Partly Cloudy 82 27.6 68 20.2 64 64 W 7 11 29.91 1013 10 16 0.00 0.00
5:35 pm 17:35 Sunny 82 27.8 69 20.4 64 64 SW 7 11 29.88 1012 10 16 0.00 0.00
5:55 pm 17:55 Sunny 82 27.5 69 20.3 65 65 SW 8 13 29.88 1012 10 16 0.00 0.00
6:15 pm 18:15 Partly Cloudy 80 26.9 70 21.1 71 71 SW 8 13 29.88 1012 10 16 0.00 0.00
6:35 pm 18:35 Partly Cloudy 81 27.4 69 20.4 66 66 SW 7 11 29.88 1012 10 16 0.00 0.00
6:55 pm 18:55 Partly Cloudy with Nearby Thunderstorms 81 27 70 20.9 69 69 WSW 6 9 29.88 1012 10 16 0.00 0.00
7:15 pm 19:15 Sunny 79 26 69 20.3 71 71 WSW 3 6 29.88 1012 10 16 0.00 0.00
7:35 pm 19:35 Partly Cloudy 77 25.2 70 21 78 78 WSW 5 7 29.88 1012 10 16 0.00 0.00
7:55 pm 19:55 Mostly Cloudy 78 25.5 69 20.6 74 74 WSW 6 9 29.88 1012 10 16 0.00 0.00
8:15 pm 20:15 Partly Cloudy 76 24.3 69 20.7 80 80 SW 5 7 29.88 1012 10 16 0.00 0.00
8:35 pm 20:35 Sunny 75 23.9 70 20.9 83 83 Calm 29.91 1013 10 16 0.00 0.00
8:55 pm 20:55 Partly Cloudy 73 22.9 71 21.7 93 93 Calm 29.91 1013 10 16 0.00 0.00
9:15 pm 21:15 Partly Cloudy 73 22.9 69 20.6 87 87 SW 3 6 29.91 1013 10 16 0.00 0.00
9:35 pm 21:35 Mostly Cloudy 73 23 68 20.1 84 84 Calm 29.91 1013 10 16 0.00 0.00
9:55 pm 21:55 Partly Cloudy 73 22.5 69 20.4 88 88 Calm 29.91 1013 10 16 0.00 0.00
10:15 pm 22:15 Partly Cloudy 72 22.3 69 20.5 90 90 WSW 3 6 29.91 1013 10 16 0.00 0.00
10:35 pm 22:35 Clear 70 21.2 69 20.3 95 95 Calm 29.91 1013 10 16 0.00 0.00
10:55 pm 22:55 Clear 70 21 68 20.2 95 95 Calm 29.91 1013 10 16 0.00 0.00
11:15 pm 23:15 Clear 69 20.3 68 20 98 98 Calm 29.94 1014 10 16 0.00 0.00
11:35 pm 23:35 Clear 68 20 68 19.8 99 99 Calm 29.94 1014 10 16 0.00 0.00
11:55 pm 23:55 Clear 67 19.5 67 19.5 100 100 S 3 6 29.94 1014 7 11 0.00 0.00

Powered by AerisWeather